Montreal Mirabel, Quebec

5:43 PM EST on January 23, 2018 (GMT -0500)
Montreal Mirabel

Weather History for CYMX - November, 2010

Change the Weather History Date:

Thursday, November 25, 2010

  Actual Average Record
Temperature  
Mean Temperature 19 °F -  
Max Temperature 24 °F 35 °F 60 °F (2001)
Min Temperature 14 °F 23 °F 6 °F (2005)
Degree Days  
Heating Degree Days 46    
Moisture  
Dew Point 10 °F    
Average Humidity 63    
Maximum Humidity 79    
Minimum Humidity 46    
Precipitation  
Precipitation 0.00 in - - ()
Sea Level Pressure  
Sea Level Pressure 30.17 in    
Wind  
Wind Speed 2 mph ()    
Max Wind Speed 9 mph    
Max Gust Speed -    
Averages and records for this station are not official NWS values.
T = Trace of Precipitation, MM = Missing Value Source: Averaged Metar Reports

Daily Weather History Graph

Daily Weather History Graph

Search for Another Location

Airport or City:

Trip Planner

Search our weather history database for the weather conditions in past years. The results will help you decide how hot, cold, wet, or windy it might be!

Date:

Astronomy

Nov. 25, 2010 Rise Set
Actual Time 7:09 AM EST 4:16 PM EST
Civil Twilight 6:35 AM EST 4:50 PM EST
Nautical Twilight 5:59 AM EST 5:26 PM EST
Astronomical Twilight 5:23 AM EST 6:02 PM EST
Moon 8:12 PM EST (11/25) 10:37 AM EST (11/25)
Length of Visible Light 10h 14m
Length of Day
9h 07m
Waning Gibbous, 83% of the Moon is Illuminated
Nov 25
Waning Gibbous
Nov 28
Last Quarter
Dec 5
New
Dec 13
First Quarter
Dec 21
Full

Hourly Weather History & Observations

Time (EST) Temp. Windchill Dew Point Humidity Pressure Visibility Wind Dir Wind Speed Gust Speed Precip Events Conditions
12:00 AM 21.2 °F - 5.0 °F 50% 30.30 in 25.0 mi Calm Calm - N/A   Clear
1:00 AM 21.2 °F - 3.2 °F 46% 30.29 in 25.0 mi WNW 2.3 mph - N/A   Clear
2:00 AM 15.8 °F - 3.2 °F 58% 30.29 in 25.0 mi South 2.3 mph - N/A   Clear
3:00 AM 15.8 °F - 5.0 °F 62% 30.29 in 25.0 mi Calm Calm - N/A   Clear
4:00 AM 15.8 °F - 6.8 °F 68% 30.28 in 25.0 mi Calm Calm - N/A   Clear
5:00 AM 14.0 °F - 5.0 °F 67% 30.28 in 25.0 mi Calm Calm - N/A   Clear
6:00 AM 14.0 °F - 5.0 °F 67% 30.28 in 25.0 mi Calm Calm - N/A   Clear
7:00 AM 14.0 °F - 6.8 °F 73% 30.27 in 45.0 mi Calm Calm - N/A   Partly Cloudy
8:00 AM 15.8 °F - 8.6 °F 73% 30.29 in 45.0 mi Calm Calm - N/A   Partly Cloudy
9:00 AM 17.6 °F - 12.2 °F 79% 30.28 in 35.0 mi Calm Calm - N/A   Partly Cloudy
10:00 AM 21.2 °F - 12.2 °F 68% 30.27 in 30.0 mi Calm Calm - N/A   Mostly Cloudy
11:00 AM 21.2 °F - 12.2 °F 68% 30.23 in 30.0 mi Calm Calm - N/A   Mostly Cloudy
12:00 PM 23.0 °F - 12.2 °F 63% 30.22 in 30.0 mi SSW 2.3 mph - N/A   Mostly Cloudy
1:00 PM 24.8 °F - 12.2 °F 59% 30.19 in 30.0 mi Calm Calm - N/A   Mostly Cloudy
2:00 PM 24.8 °F - 10.4 °F 54% 30.16 in 30.0 mi East 2.3 mph - N/A   Mostly Cloudy
3:00 PM 24.8 °F 19.1 °F 10.4 °F 54% 30.14 in 30.0 mi ENE 4.6 mph - N/A   Mostly Cloudy
4:00 PM 24.8 °F 20.5 °F 10.4 °F 54% 30.14 in 25.0 mi East 3.5 mph - N/A   Mostly Cloudy
5:00 PM 24.8 °F 20.5 °F 12.2 °F 59% 30.09 in 25.0 mi ENE 3.5 mph - N/A   Overcast
6:00 PM 24.8 °F 16.9 °F 14.0 °F 64% 30.08 in 25.0 mi ENE 6.9 mph - N/A   Overcast
7:00 PM 24.8 °F 16.1 °F 14.0 °F 64% 30.04 in 25.0 mi ENE 8.1 mph - N/A   Overcast
8:00 PM 23.0 °F 13.9 °F 14.0 °F 68% 30.01 in 25.0 mi NE 8.1 mph - N/A   Overcast
9:00 PM 23.0 °F 13.1 °F 14.0 °F 68% 29.96 in 25.0 mi NE 9.2 mph - N/A   Overcast
10:00 PM 23.0 °F 13.9 °F 14.0 °F 68% 29.91 in 25.0 mi NE 8.1 mph - N/A   Overcast
11:00 PM 23.0 °F 13.1 °F 14.0 °F 68% 29.87 in 25.0 mi ENE 9.2 mph - N/A   Overcast